FW7227 Weather Reports


time (UTC)temp
C
wind
direction
speed
KPH
gust
KPH
rain 1hr
cm
rain 24hr
cm
rain mn
cm
humidity
%
barometer
mb
20260505224101 11 360 4.8 12.9 0.00 0.15 0.00 92 1007.4
20260505223556 11 360 3.2 12.9 0.00 0.15 0.00 91 1007.3
20260505223057 11 360 3.2 14.5 0.00 0.15 0.00 91 1007.4
20260505222556 11 360 3.2 14.5 0.00 0.15 0.00 91 1007.4
20260505222056 11 360 4.8 14.5 0.00 0.15 0.00 91 1007.4
20260505221604 11 32 4.8 14.5 0.00 0.15 0.00 91 1007.4
20260505221100 11 55 4.8 14.5 0.00 0.15 0.00 91 1007.5
20260505220557 11 65 6.4 17.7 0.00 0.15 0.00 91 1007.5
20260505220057 11 60 9.7 17.7 0.00 0.15 0.00 91 1007.5
20260505215557 11 81 4.8 17.7 0.00 0.18 0.15 91 1007.5
20260505215058 11 54 8.0 17.7 0.00 0.18 0.15 91 1007.6
20260505214605 11 67 9.7 17.7 0.00 0.18 0.15 90 1007.7
20260505214057 11 40 4.8 17.7 0.00 0.18 0.15 90 1007.8
20260505213557 11 54 6.4 16.1 0.00 0.18 0.15 90 1007.7
20260505213104 11 15 6.4 16.1 0.00 0.18 0.15 90 1007.7
20260505212557 11 53 4.8 16.1 0.00 0.18 0.15 90 1007.8
20260505212056 11 57 4.8 19.3 0.00 0.18 0.15 91 1007.8
20260505211559 11 31 8.0 20.9 0.00 0.18 0.15 91 1007.8
20260505211057 11 21 8.0 20.9 0.00 0.18 0.15 90 1007.8
20260505210558 11 44 6.4 19.3 0.00 0.18 0.15 90 1007.8
20260505205556 11 21 8.0 17.7 0.00 0.28 0.15 90 1007.9
20260505205059 11 63 4.8 17.7 0.00 0.28 0.15 90 1007.9
20260505204558 11 44 4.8 19.3 0.00 0.28 0.15 90 1007.9
20260505204056 11 78 9.7 19.3 0.00 0.28 0.15 90 1008.0
20260505203557 11 42 6.4 17.7 0.00 0.28 0.15 90 1007.9
20260505203058 11 66 8.0 20.9 0.00 0.28 0.15 90 1008.0
20260505202557 11 49 6.4 20.9 0.00 0.28 0.15 90 1007.9
20260505202057 11 42 8.0 16.1 0.00 0.28 0.15 90 1007.9
20260505201555 11 27 4.8 19.3 0.00 0.28 0.15 90 1007.8
20260505201057 11 28 9.7 19.3 0.00 0.28 0.15 90 1007.9
20260505200558 11 56 4.8 17.7 0.00 0.28 0.15 90 1007.8
20260505200058 11 28 9.7 17.7 0.00 0.28 0.15 90 1007.9
20260505195556 11 16 8.0 17.7 0.00 0.64 0.15 90 1007.9
20260505195059 11 13 9.7 19.3 0.00 0.64 0.15 90 1007.9
20260505194600 11 34 8.0 19.3 0.00 0.64 0.15 90 1007.9
20260505194056 11 5 9.7 19.3 0.00 0.64 0.15 90 1007.9
20260505193557 11 339 4.8 19.3 0.00 0.64 0.15 90 1007.9
20260505193119 11 51 6.4 17.7 0.00 0.64 0.15 89 1007.9
20260505192557 11 36 6.4 16.1 0.00 0.64 0.15 89 1008.0
20260505192057 11 14 6.4 19.3 0.00 0.64 0.15 89 1007.9
20260505191605 11 44 8.0 19.3 0.00 0.64 0.15 89 1007.9
20260505191056 11 23 11.3 19.3 0.00 0.64 0.15 89 1007.9
20260505190556 12 38 4.8 14.5 0.00 0.64 0.15 89 1007.9
20260505190058 12 41 4.8 14.5 0.00 0.64 0.15 89 1007.9
20260505185557 12 31 4.8 19.3 0.00 0.84 0.15 89 1007.8
20260505185058 12 19 4.8 19.3 0.00 0.84 0.15 88 1007.9
20260505184601 12 38 8.0 19.3 0.00 0.84 0.15 88 1007.9
20260505184058 12 60 6.4 17.7 0.00 0.84 0.15 88 1007.9
20260505183556 12 43 6.4 17.7 0.00 0.84 0.15 88 1008.0
20260505183056 12 61 4.8 17.7 0.00 0.84 0.15 88 1007.9
20260505182556 12 36 6.4 19.3 0.00 0.84 0.15 87 1008.0
20260505182056 12 69 8.0 19.3 0.00 0.84 0.15 87 1008.0
20260505181556 12 340 8.0 16.1 0.00 0.84 0.15 87 1008.0
20260505181056 12 35 3.2 16.1 0.00 0.84 0.15 87 1008.0
20260505180556 12 41 6.4 17.7 0.00 0.84 0.15 87 1008.0
20260505180058 12 24 6.4 17.7 0.00 0.84 0.15 87 1008.0
20260505175556 12 47 4.8 12.9 0.00 0.84 0.15 87 1008.0
20260505175056 12 79 3.2 9.7 0.00 0.84 0.15 87 1008.0
20260505174556 12 0 3.2 17.7 0.00 0.84 0.15 87 1008.0
20260505174100 12 58 3.2 19.3 0.00 0.84 0.15 87 1008.0
20260505173557 12 46 6.4 19.3 0.00 0.84 0.15 87 1008.0
20260505173100 12 42 9.7 19.3 0.00 0.84 0.15 86 1008.0
20260505172556 12 28 8.0 14.5 0.00 0.84 0.15 86 1008.0
20260505172056 12 54 3.2 19.3 0.00 0.84 0.15 86 1008.0
20260505171559 13 23 8.0 19.3 0.00 0.84 0.15 86 1008.1
20260505171056 13 76 6.4 16.1 0.00 0.84 0.15 86 1008.1
20260505170557 13 19 6.4 16.1 0.00 0.84 0.15 85 1008.2
20260505170058 13 30 8.0 16.1 0.00 0.84 0.15 85 1008.3
20260505165558 13 35 6.4 16.1 0.00 0.84 0.15 85 1008.3
20260505165101 13 349 6.4 17.7 0.00 0.84 0.15 85 1008.3
20260505164557 13 31 6.4 17.7 0.00 0.84 0.15 84 1008.3
20260505164057 13 68 6.4 16.1 0.00 0.84 0.15 85 1008.3
20260505163556 13 92 9.7 16.1 0.00 0.84 0.15 84 1008.4
20260505163055 13 23 6.4 16.1 0.00 0.84 0.15 84 1008.3
20260505162600 13 51 4.8 14.5 0.00 0.84 0.15 84 1008.3
20260505162056 13 57 6.4 16.1 0.00 0.84 0.15 84 1008.3
20260505161559 13 22 8.0 16.1 0.00 0.84 0.15 84 1008.4
20260505161056 13 26 4.8 16.1 0.00 0.84 0.15 84 1008.4
20260505160557 14 32 4.8 16.1 0.00 0.84 0.15 84 1008.5
20260505153104 14 38 11.3 20.9 0.00 0.84 0.15 83 1008.6
20260505152557 15 46 8.0 20.9 0.00 0.84 0.15 83 1008.6
20260505152056 15 25 11.3 20.9 0.00 0.84 0.15 83 1008.5
20260505151558 15 18 9.7 17.7 0.00 0.84 0.15 84 1008.5
20260505151100 14 18 6.4 16.1 0.00 0.84 0.15 84 1008.6
20260505150557 14 40 8.0 14.5 0.00 0.84 0.15 84 1008.7
20260505140557 16 360 9.7 19.3 0.00 0.84 0.15 80 1008.9
20260505130116 15 332 6.4 17.7 0.00 0.84 0.15 83 1009.0
20260505124617 15 14 3.2 16.1 0.00 0.84 0.15 84 1009.2
20260505124057 15 346 6.4 16.1 0.00 0.84 0.15 83 1009.2
20260505123602 15 312 8.0 14.5 0.00 0.84 0.15 84 1009.2
20260505123116 15 360 4.8 16.1 0.00 0.84 0.15 83 1009.2
20260505122556 15 360 8.0 16.1 0.00 0.84 0.15 82 1009.2
20260505122056 16 360 8.0 17.7 0.00 0.84 0.15 83 1009.2
20260505121555 16 360 8.0 17.7 0.00 0.84 0.15 83 1009.2
20260505121059 16 18 8.0 17.7 0.00 0.84 0.15 83 1009.1
20260505120559 16 327 8.0 17.7 0.00 0.84 0.15 82 1009.2
20260505120103 16 352 6.4 14.5 0.00 0.84 0.15 82 1009.1
20260505115557 16 342 6.4 12.9 0.00 0.84 0.15 81 1009.1
20260505115057 16 352 4.8 14.5 0.00 0.84 0.15 80 1009.1
20260505114555 16 0 4.8 17.7 0.00 0.84 0.15 79 1009.1
20260505114057 16 360 8.0 17.7 0.00 0.84 0.15 79 1009.1
20260505113602 17 5 3.2 14.5 0.00 0.84 0.15 79 1009.1
20260505113108 17 32 1.6 14.5 0.00 0.84 0.15 79 1009.2
20260505112557 17 0 3.2 14.5 0.00 0.84 0.15 80 1009.1
20260505112057 17 344 6.4 16.1 0.00 0.84 0.15 78 1009.2
20260505111556 17 5 8.0 16.1 0.00 0.84 0.15 79 1009.2
20260505111057 17 306 1.6 9.7 0.00 0.84 0.15 80 1009.2
20260505110556 17 328 3.2 9.7 0.00 0.84 0.15 80 1009.3
20260505102059 17 340 3.2 14.5 0.00 0.84 0.15 77 1009.4
20260505101557 17 314 6.4 14.5 0.00 0.84 0.15 78 1009.5
20260505101057 17 301 3.2 14.5 0.00 0.84 0.15 80 1009.5
20260505100557 17 272 6.4 14.5 0.00 0.84 0.15 80 1009.6
20260505100058 17 311 3.2 11.3 0.00 0.84 0.15 82 1009.5
20260505095559 17 0 3.2 12.9 0.00 0.84 0.15 84 1009.5
20260505095057 16 252 3.2 12.9 0.00 0.84 0.15 85 1009.5
20260505094556 16 287 3.2 11.3 0.00 0.84 0.15 85 1009.5
20260505094056 16 322 3.2 11.3 0.00 0.84 0.15 87 1009.5
20260505093556 16 292 4.8 11.3 0.00 0.84 0.15 90 1009.5
20260505093058 15 280 4.8 9.7 0.00 0.84 0.15 91 1009.5
20260505092557 15 360 1.6 9.7 0.00 0.84 0.15 92 1009.5
20260505092057 15 360 3.2 9.7 0.00 0.84 0.15 93 1009.6
20260505091618 15 360 0.0 1.6 0.00 0.84 0.15 93 1009.6
20260505091056 15 0 0.0 3.2 0.00 0.84 0.15 94 1009.7
20260505090557 15 0 0.0 6.4 0.00 0.84 0.15 94 1009.7
20260505090122 15 0 1.6 6.4 0.00 0.84 0.15 94 1009.7
20260505085557 15 0 0.0 4.8 0.00 0.84 0.15 94 1009.7
20260505085059 14 323 0.0 4.8 0.00 0.84 0.15 94 1009.8
20260505084613 14 0 1.6 4.8 0.00 0.84 0.15 94 1009.8
20260505084056 14 360 0.0 4.8 0.00 0.84 0.15 94 1009.8
20260505083600 14 360 0.0 6.4 0.00 0.84 0.15 94 1009.8
20260505083112 14 0 3.2 8.0 0.00 0.84 0.15 95 1009.9
20260505082557 14 360 1.6 8.0 0.00 0.84 0.15 95 1009.9
20260505082057 14 360 1.6 6.4 0.00 0.84 0.15 94 1009.9
20260505081605 14 360 0.0 4.8 0.00 0.84 0.15 94 1010.0
20260505081058 14 360 1.6 4.8 0.00 0.84 0.15 95 1009.9
20260505080557 14 360 1.6 4.8 0.00 0.84 0.15 95 1010.0
20260505075558 13 242 1.6 6.4 0.00 0.84 0.15 95 1009.9
20260505075057 13 244 0.0 3.2 0.00 0.84 0.15 95 1010.0
20260505074559 13 0 0.0 4.8 0.00 0.84 0.15 94 1010.0
20260505074057 13 0 1.6 6.4 0.00 0.84 0.15 94 1010.0
20260505073557 13 360 1.6 6.4 0.00 0.84 0.15 94 1010.0
20260505073102 13 360 3.2 6.4 0.00 0.84 0.15 94 1010.0
20260505072558 13 0 1.6 6.4 0.00 0.84 0.15 94 1010.0
20260505072058 13 0 0.0 0.0 0.00 0.84 0.15 94 1010.0
20260505071615 13 0 0.0 0.0 0.00 0.84 0.15 94 1010.1
20260505071101 13 0 0.0 4.8 0.00 0.84 0.15 94 1010.0
20260505070558 13 0 0.0 4.8 0.00 0.84 0.15 94 1010.0
20260505070059 13 0 0.0 4.8 0.00 0.84 0.15 94 1010.1
20260505065557 13 360 0.0 3.2 0.03 0.84 0.15 94 1009.9
20260505065057 13 0 0.0 4.8 0.03 0.84 0.15 94 1010.0
20260505064603 13 360 0.0 4.8 0.03 0.84 0.15 94 1010.1
20260505064057 13 360 0.0 4.8 0.05 0.84 0.15 94 1010.1
20260505063600 13 0 1.6 4.8 0.05 0.84 0.15 94 1010.1
20260505063101 13 360 1.6 4.8 0.08 0.84 0.15 94 1010.1
20260505062557 13 360 0.0 4.8 0.08 0.84 0.15 94 1010.1
20260505062059 13 360 0.0 3.2 0.08 0.81 0.13 94 1010.2
20260505061608 13 0 0.0 3.2 0.08 0.81 0.13 94 1010.2
20260505061056 13 360 0.0 3.2 0.08 0.81 0.13 94 1010.2
20260505060558 13 0 0.0 3.2 0.08 0.81 0.13 94 1010.2
20260505055558 13 0 0.0 4.8 0.08 0.79 0.10 94 1010.1
20260505055059 13 0 0.0 4.8 0.08 0.79 0.10 94 1010.1
20260505054557 13 0 0.0 0.0 0.08 0.79 0.10 94 1010.2
20260505054057 13 0 0.0 0.0 0.05 0.76 0.08 94 1010.2
20260505053557 13 0 0.0 0.0 0.05 0.76 0.08 94 1010.1
20260505053107 13 0 0.0 0.0 0.03 0.74 0.08 94 1010.1
20260505052557 13 0 0.0 0.0 0.03 0.74 0.08 94 1010.1
20260505052057 13 0 0.0 0.0 0.00 0.74 0.05 94 1010.2
20260505051605 13 0 0.0 0.0 0.00 0.74 0.05 94 1010.1
20260505051057 13 0 0.0 0.0 0.00 0.74 0.05 94 1010.1
20260505050557 13 0 0.0 0.0 0.00 0.71 0.03 93 1010.2
20260505041602 13 0 0.0 0.0 0.00 0.71 0.03 93 1010.2
20260505041056 13 0 0.0 0.0 0.00 0.71 0.03 93 1010.2
20260505040556 13 0 0.0 0.0 0.00 0.71 0.03 93 1010.3
20260505040059 13 0 0.0 0.0 0.00 0.71 0.03 93 1010.2
20260505035556 13 0 0.0 0.0 0.00 0.71 0.03 93 1010.3
20260505035058 13 0 0.0 0.0 0.00 0.71 0.03 93 1010.3
20260505034554 13 0 0.0 0.0 0.00 0.71 0.03 93 1010.2
20260505034056 13 0 0.0 0.0 0.00 0.71 0.03 93 1010.2
20260505033556 13 0 0.0 0.0 0.00 0.71 0.03 93 1010.3
20260505033055 13 0 0.0 0.0 0.00 0.71 0.03 93 1010.3
20260505032556 13 0 0.0 0.0 0.00 0.71 0.03 93 1010.4
20260505032057 13 0 0.0 0.0 0.00 0.71 0.03 92 1010.4
20260505031556 13 0 0.0 0.0 0.00 0.71 0.03 92 1010.4
20260505031056 13 0 0.0 0.0 0.00 0.71 0.03 92 1010.5
20260505030556 13 0 0.0 0.0 0.00 0.71 0.03 92 1010.6
20260505030117 13 0 0.0 0.0 0.00 0.71 0.03 92 1010.6
20260505025556 13 0 0.0 0.0 0.00 0.71 0.03 92 1010.6
20260505025100 13 0 0.0 0.0 0.00 0.71 0.03 92 1010.5
20260505024559 13 0 0.0 0.0 0.00 0.71 0.03 92 1010.6
20260505024056 13 0 0.0 0.0 0.00 0.71 0.03 92 1010.6
20260505023557 13 0 0.0 0.0 0.00 0.71 0.03 92 1010.6
20260505023055 13 0 0.0 0.0 0.00 0.69 0.00 92 1010.6
20260505022557 13 0 0.0 0.0 0.00 0.69 0.00 92 1010.6
20260505022059 13 0 0.0 0.0 0.00 0.69 0.00 92 1010.7
20260505021557 13 0 0.0 0.0 0.00 0.69 0.00 92 1010.8
20260505021055 13 0 0.0 0.0 0.00 0.69 0.00 92 1010.8
20260505020556 13 0 0.0 0.0 0.00 0.69 0.00 92 1010.9
20260505015558 13 0 0.0 0.0 0.00 0.69 0.00 92 1010.9
20260505015100 13 0 0.0 0.0 0.00 0.69 0.00 92 1010.9
20260505014611 13 0 0.0 0.0 0.00 0.69 0.00 92 1011.0
20260505014059 13 0 0.0 0.0 0.00 0.69 0.00 92 1011.0
20260505013557 13 0 0.0 0.0 0.00 0.69 0.00 92 1010.9
20260505013101 13 0 0.0 0.0 0.00 0.69 0.00 92 1010.9
20260505012557 13 0 0.0 0.0 0.00 0.69 0.00 92 1010.9
20260505012057 13 0 0.0 0.0 0.00 0.69 0.00 92 1010.9
20260505011601 13 0 0.0 0.0 0.00 0.69 0.00 92 1011.0
20260505011101 13 0 0.0 0.0 0.00 0.69 0.00 92 1011.1
20260505010557 13 0 0.0 0.0 0.00 0.69 0.00 92 1011.2
20260505005601 13 0 0.0 0.0 0.00 0.69 0.00 92 1011.3
20260505005057 13 0 0.0 0.0 0.00 0.69 0.00 92 1011.2
20260505004559 13 0 0.0 0.0 0.00 0.69 0.00 92 1011.2
20260505004100 13 0 0.0 0.0 0.00 0.69 0.00 92 1011.3
20260505003556 13 0 0.0 0.0 0.00 0.69 0.00 92 1011.4
20260505003115 13 0 0.0 0.0 0.00 0.69 0.00 92 1011.4
20260505002556 13 0 0.0 0.0 0.00 0.69 0.00 92 1011.4
20260505002057 13 0 0.0 0.0 0.00 0.69 0.00 92 1011.5
20260505001612 13 0 0.0 0.0 0.00 0.69 0.00 92 1011.5
20260505001057 13 0 0.0 0.0 0.00 0.69 0.00 92 1011.6
20260505000557 13 0 0.0 0.0 0.00 0.69 0.00 92 1011.6
20260505000108 13 0 0.0 0.0 0.00 0.69 0.00 92 1011.7
20260504235557 13 0 0.0 0.0 0.00 0.69 0.00 92 1011.7
20260504235057 13 0 0.0 0.0 0.00 0.69 0.00 92 1011.8
20260504234558 13 0 0.0 0.0 0.00 0.69 0.00 92 1011.8
20260504234057 13 0 0.0 0.0 0.00 0.69 0.00 92 1011.9
20260504233557 13 0 0.0 0.0 0.00 0.69 0.00 92 1011.9
20260504233103 13 0 0.0 0.0 0.00 0.69 0.00 92 1011.9
20260504232559 13 0 0.0 0.0 0.00 0.69 0.00 92 1011.9
20260504232059 13 0 0.0 0.0 0.00 0.69 0.00 92 1012.0
20260504231559 13 0 0.0 0.0 0.00 0.69 0.00 92 1012.0
20260504231056 13 0 0.0 0.0 0.00 0.69 0.00 92 1012.1
20260504230600 13 0 0.0 0.0 0.00 0.69 0.00 92 1012.1
20260504230059 13 0 0.0 0.0 0.00 0.69 0.00 92 1012.1
20260504225557 13 0 0.0 0.0 0.00 0.69 0.00 92 1012.1
20260504225056 13 0 0.0 0.0 0.03 0.69 0.00 92 1012.1
20260504224559 13 0 0.0 0.0 0.03 0.69 0.00 92 1012.2